FW5863 Weather Reports


Display with metric or nautical units.
time (UTC)temp
F
wind
direction
speed
MPH
gust
MPH
rain 1hr
in
rain 24hr
in
rain mn
in
humidity
%
barometer
mb
20260507185458 62 50 6.0 11.0 0.00 0.27 0.02 42 1008.6
20260507184458 62 50 6.0 13.0 0.00 0.27 0.02 45 1008.7
20260507183957 61 50 8.0 17.0 0.00 0.27 0.02 46 1008.8
20260507183457 61 50 10.0 17.0 0.00 0.27 0.02 44 1008.9
20260507182958 61 50 9.0 15.0 0.00 0.27 0.02 43 1008.9
20260507182458 61 50 6.0 14.0 0.00 0.27 0.02 43 1009.0
20260507181958 61 50 6.0 13.0 0.00 0.27 0.02 47 1009.1
20260507180957 61 50 7.0 14.0 0.00 0.27 0.02 45 1009.1
20260507180457 60 50 6.0 14.0 0.00 0.27 0.02 43 1009.1
20260507175958 60 50 5.0 12.0 0.00 0.27 0.02 43 1009.2
20260507175458 60 50 7.0 16.0 0.00 0.27 0.02 43 1009.3
20260507174958 60 50 8.0 16.0 0.00 0.27 0.02 48 1009.3
20260507174458 60 50 7.0 16.0 0.00 0.27 0.02 44 1009.3
20260507173958 60 50 6.0 14.0 0.00 0.27 0.02 45 1009.5
20260507173458 60 50 7.0 13.0 0.00 0.27 0.02 45 1009.6
20260507172958 60 50 6.0 13.0 0.00 0.27 0.02 46 1009.7
20260507172458 59 50 6.0 12.0 0.00 0.27 0.02 48 1009.7
20260507171957 59 50 5.0 12.0 0.00 0.27 0.02 47 1009.8
20260507171458 59 50 4.0 11.0 0.00 0.27 0.02 50 1009.9
20260507170958 59 50 6.0 14.0 0.00 0.27 0.02 48 1010.0
20260507170457 59 50 4.0 14.0 0.00 0.27 0.02 49 1010.1
20260507165958 58 50 4.0 11.0 0.00 0.27 0.02 48 1010.1
20260507164958 58 50 7.0 14.0 0.00 0.27 0.02 45 1010.3
20260507164458 58 50 6.0 14.0 0.00 0.27 0.02 46 1010.5
20260507163957 58 50 6.0 13.0 0.00 0.27 0.02 43 1010.5
20260507163457 58 50 6.0 13.0 0.00 0.27 0.02 48 1010.6
20260507162958 58 50 7.0 15.0 0.00 0.27 0.02 50 1010.5
20260507162459 58 50 7.0 15.0 0.00 0.27 0.02 43 1010.5
20260507161958 58 50 7.0 13.0 0.00 0.27 0.02 47 1010.6
20260507161458 58 50 8.0 14.0 0.00 0.27 0.02 49 1010.6
20260507160957 57 50 8.0 14.0 0.00 0.27 0.02 52 1010.5
20260507160457 57 50 6.0 13.0 0.00 0.27 0.02 48 1010.7
20260507155457 57 50 5.0 13.0 0.00 0.27 0.02 52 1010.8
20260507154957 56 50 6.0 13.0 0.00 0.27 0.02 53 1011.0
20260507154458 56 50 5.0 12.0 0.00 0.27 0.02 50 1011.1
20260507153958 56 50 7.0 18.0 0.00 0.27 0.02 49 1011.2
20260507153457 56 50 7.0 18.0 0.00 0.27 0.02 51 1011.3
20260507152958 56 50 5.0 13.0 0.00 0.27 0.02 50 1011.3
20260507152458 56 50 4.0 11.0 0.00 0.27 0.02 50 1011.4
20260507151957 56 50 2.0 9.0 0.00 0.27 0.02 54 1011.5
20260507151458 56 50 4.0 12.0 0.00 0.27 0.02 53 1011.5
20260507150958 55 50 7.0 14.0 0.00 0.27 0.02 52 1011.6
20260507150457 55 50 7.0 14.0 0.00 0.27 0.02 54 1011.6
20260507145958 55 50 6.0 13.0 0.00 0.27 0.02 55 1011.6
20260507145457 55 50 5.0 12.0 0.00 0.27 0.02 53 1011.7
20260507144458 55 50 4.0 12.0 0.00 0.27 0.02 57 1012.0
20260507143957 55 50 4.0 9.0 0.00 0.27 0.02 55 1012.0
20260507142958 54 50 5.0 12.0 0.00 0.27 0.02 56 1012.1
20260507142457 54 50 5.0 10.0 0.00 0.27 0.02 58 1012.1
20260507141458 53 50 4.0 11.0 0.00 0.27 0.02 59 1012.2
20260507140457 53 50 7.0 16.0 0.00 0.27 0.02 61 1012.3
20260507135958 53 50 6.0 16.0 0.00 0.27 0.02 58 1012.3
20260507135457 53 50 6.0 12.0 0.00 0.27 0.02 62 1012.4
20260507134957 52 50 7.0 12.0 0.00 0.27 0.02 61 1012.4
20260507134458 52 50 8.0 12.0 0.00 0.27 0.02 61 1012.5
20260507133957 52 50 8.0 18.0 0.00 0.27 0.02 61 1012.4
20260507133457 52 320 7.0 18.0 0.00 0.27 0.02 61 1012.5
20260507132958 52 50 4.0 14.0 0.00 0.27 0.02 61 1012.4
20260507132458 52 50 5.0 10.0 0.00 0.27 0.02 66 1012.4
20260507131458 51 50 6.0 11.0 0.00 0.27 0.02 66 1012.3
20260507130458 51 50 5.0 12.0 0.00 0.27 0.02 65 1012.3
20260507125958 51 9 5.0 9.0 0.00 0.27 0.02 67 1012.4
20260507125457 51 332 5.0 11.0 0.00 0.27 0.02 68 1012.4
20260507124957 51 324 5.0 11.0 0.00 0.27 0.02 70 1012.2
20260507124458 50 315 6.0 11.0 0.00 0.27 0.02 67 1012.2
20260507123957 50 342 6.0 11.0 0.00 0.27 0.02 68 1012.3
20260507123457 50 310 5.0 9.0 0.00 0.27 0.02 68 1012.3
20260507122958 50 6 5.0 10.0 0.00 0.27 0.02 70 1012.3
20260507122457 50 320 5.0 11.0 0.00 0.27 0.02 72 1012.3
20260507121957 50 5 6.0 11.0 0.00 0.27 0.02 71 1012.2
20260507120957 49 13 7.0 14.0 0.00 0.27 0.02 72 1012.1
20260507120457 49 26 8.0 14.0 0.00 0.27 0.02 71 1012.0
20260507115958 49 13 8.0 14.0 0.00 0.27 0.02 72 1012.1
20260507115457 49 356 7.0 12.0 0.00 0.27 0.02 71 1012.1
20260507114957 49 23 7.0 12.0 0.00 0.27 0.02 72 1012.2
20260507114458 49 12 6.0 13.0 0.00 0.27 0.02 73 1012.2
20260507113957 49 24 6.0 13.0 0.00 0.27 0.02 74 1012.2
20260507113457 0 0.0 0.0 0.00 0.27 0.02 1012.2
20260507112958 0 0.0 0.0 0.00 0.27 0.02 1012.1
20260507112457 0 0.0 0.0 0.00 0.27 0.02 1012.1
20260507111957 0 0.0 0.0 0.00 0.27 0.02 1012.0
20260507111459 0 0.0 0.0 0.00 0.27 0.02 1012.0
20260507110957 0 0.0 0.0 0.00 0.27 0.02 1011.9
20260507110457 0 0.0 0.0 0.00 0.27 0.02 1011.8
20260507105958 0 0.0 0.0 0.00 0.27 0.02 1011.8
20260507105457 0 0.0 0.0 0.00 0.27 0.02 1011.7
20260507104957 0 0.0 0.0 0.00 0.27 0.02 1011.6
20260507104458 0 0.0 0.0 0.00 0.27 0.02 1011.5
20260507103957 0 0.0 0.0 0.00 0.27 0.02 1011.3
20260507103457 0 0.0 0.0 0.00 0.27 0.02 1011.2
20260507102958 0 0.0 0.0 0.00 0.27 0.02 1011.0
20260507101957 0 0.0 0.0 0.00 0.27 0.02 1011.0
20260507101458 0 0.0 0.0 0.00 0.27 0.02 1010.9
20260507100957 0 0.0 0.0 0.00 0.27 0.02 1010.9
20260507100457 0 0.0 0.0 0.00 0.27 0.02 1010.9
20260507095958 0 0.0 0.0 0.00 0.27 0.02 1010.7
20260507095458 48 304 2.0 7.0 0.00 0.27 0.02 87 1010.7
20260507094957 48 304 1.0 7.0 0.00 0.27 0.02 87 1010.7
20260507094458 48 320 1.0 6.0 0.00 0.27 0.02 88 1010.7
20260507093957 48 320 2.0 6.0 0.00 0.27 0.02 88 1010.6
20260507093457 48 336 1.0 5.0 0.00 0.27 0.02 88 1010.5
20260507091957 48 343 2.0 4.0 0.00 0.27 0.02 88 1010.4
20260507090957 49 347 3.0 6.0 0.00 0.27 0.02 87 1010.2
20260507090457 49 324 2.0 6.0 0.00 0.27 0.02 88 1010.3
20260507085958 48 336 2.0 5.0 0.00 0.27 0.02 88 1010.2
20260507085457 48 309 2.0 6.0 0.00 0.27 0.02 88 1010.0
20260507084957 49 309 2.0 6.0 0.00 0.27 0.02 88 1010.0
20260507084458 49 307 1.0 4.0 0.00 0.27 0.02 88 1010.1
20260507083957 49 307 3.0 4.0 0.00 0.27 0.02 88 1010.2
20260507083457 49 295 2.0 5.0 0.00 0.27 0.02 88 1010.1
20260507082958 49 343 2.0 7.0 0.00 0.27 0.02 88 1010.1
20260507082457 49 313 4.0 9.0 0.00 0.27 0.02 88 1010.2
20260507081957 49 339 4.0 9.0 0.00 0.27 0.02 88 1010.1
20260507081458 49 338 3.0 8.0 0.00 0.27 0.02 88 1010.3
20260507080457 49 321 3.0 8.0 0.00 0.27 0.02 88 1010.5
20260507075958 49 317 4.0 8.0 0.00 0.27 0.02 88 1010.5
20260507074957 49 317 3.0 7.0 0.00 0.27 0.02 88 1010.6
20260507074458 49 301 3.0 9.0 0.00 0.27 0.02 87 1010.6
20260507073957 49 319 3.0 9.0 0.00 0.27 0.02 88 1010.4
20260507073457 49 315 2.0 7.0 0.00 0.27 0.02 88 1010.7
20260507072958 49 308 1.0 6.0 0.00 0.27 0.02 88 1010.7
20260507072457 49 331 1.0 4.0 0.00 0.27 0.02 89 1010.7
20260507071957 49 270 2.0 5.0 0.00 0.27 0.02 89 1011.0
20260507071458 49 279 1.0 5.0 0.00 0.27 0.02 90 1011.0
20260507070457 48 313 1.0 3.0 0.00 0.27 0.02 91 1010.8
20260507070000 49 305 1.0 3.0 0.00 0.27 0.02 91 1010.7
20260507065459 49 305 0.0 3.0 0.00 0.27 0.02 91 1010.9
20260507064958 49 284 0.0 0.0 0.00 0.27 0.02 92 1010.7
20260507064459 49 284 0.0 0.0 0.00 0.27 0.02 91 1010.7
20260507063958 49 284 0.0 0.0 0.00 0.27 0.02 91 1010.7
20260507063458 49 284 0.0 0.0 0.01 0.27 0.02 91 1010.7
20260507062959 49 284 0.0 0.0 0.01 0.27 0.02 91 1010.7
20260507062458 49 284 0.0 0.0 0.01 0.27 0.02 91 1010.7
20260507061958 49 284 0.0 0.0 0.01 0.27 0.02 90 1010.7
20260507061459 49 284 0.0 0.0 0.01 0.27 0.02 90 1010.8
20260507060958 49 284 0.0 0.0 0.01 0.27 0.02 89 1010.8
20260507060458 49 284 0.0 0.0 0.01 0.27 0.02 88 1010.9
20260507055959 49 284 0.0 0.0 0.01 0.27 0.02 88 1011.0
20260507055458 49 284 0.0 0.0 0.01 0.27 0.02 88 1010.8
20260507054459 49 285 1.0 2.0 0.02 0.27 0.02 88 1010.9
20260507053958 49 280 0.0 2.0 0.02 0.27 0.02 88 1010.6
20260507052959 49 294 2.0 4.0 0.01 0.26 0.01 87 1010.7
20260507052458 49 296 2.0 4.0 0.01 0.26 0.01 87 1011.1
20260507051958 49 272 1.0 4.0 0.01 0.26 0.01 87 1010.8
20260507051459 49 346 2.0 5.0 0.01 0.26 0.01 87 1010.6
20260507050958 49 11 3.0 5.0 0.01 0.26 0.01 87 1010.2
20260507050458 49 340 3.0 5.0 0.01 0.26 0.01 87 1010.5
20260507050000 50 344 3.0 7.0 0.01 0.26 0.01 86 1010.1
20260507044958 50 352 4.0 8.0 0.00 0.25 0.00 85 1010.5
20260507044459 50 324 4.0 8.0 0.00 0.25 0.00 84 1010.6
20260507043958 50 334 3.0 7.0 0.00 0.25 0.00 84 1010.6
20260507043458 51 342 2.0 4.0 0.00 0.25 0.00 85 1010.2
20260507042959 51 317 3.0 7.0 0.00 0.25 0.00 84 1010.2
20260507042458 51 1 3.0 7.0 0.00 0.25 0.00 84 1010.1
20260507041958 50 343 2.0 5.0 0.00 0.25 0.00 85 1010.1
20260507040958 51 334 1.0 6.0 0.00 0.25 0.00 86 1010.0
20260507040459 51 356 0.0 4.0 0.00 0.25 0.00 87 1010.0
20260507035959 51 359 1.0 4.0 0.00 0.25 0.18 87 1010.2
20260507035458 51 359 1.0 4.0 0.00 0.25 0.18 87 1010.5
20260507035002 51 351 0.0 4.0 0.00 0.25 0.18 87 1010.6
20260507034459 51 340 1.0 4.0 0.00 0.25 0.18 87 1010.5
20260507033459 51 334 3.0 8.0 0.00 0.25 0.18 86 1010.5
20260507032959 51 330 4.0 8.0 0.00 0.25 0.18 87 1010.4
20260507032458 51 333 3.0 8.0 0.00 0.25 0.18 87 1010.2
20260507031958 51 45 3.0 6.0 0.00 0.25 0.18 87 1010.1
20260507031459 51 60 3.0 6.0 0.00 0.25 0.18 87 1010.0
20260507030458 51 26 3.0 8.0 0.00 0.25 0.18 87 1010.2
20260507025959 52 22 3.0 8.0 0.00 0.25 0.18 87 1010.2
20260507025458 52 348 4.0 8.0 0.00 0.25 0.18 87 1010.0
20260507024958 52 311 3.0 8.0 0.00 0.25 0.18 87 1010.0
20260507024459 52 348 3.0 8.0 0.00 0.25 0.18 86 1010.0
20260507023958 52 360 5.0 10.0 0.00 0.25 0.18 85 1009.8
20260507023458 52 342 6.0 11.0 0.00 0.25 0.18 85 1010.0
20260507022959 52 354 7.0 13.0 0.00 0.25 0.18 85 1010.2
20260507021958 53 323 6.0 12.0 0.00 0.25 0.18 85 1010.3
20260507021459 53 323 6.0 12.0 0.00 0.25 0.18 85 1010.2
20260507015458 54 334 9.0 16.0 0.00 0.25 0.18 85 1010.1
20260507014958 54 348 9.0 16.0 0.00 0.25 0.18 85 1010.3
20260507014459 54 321 7.0 15.0 0.00 0.25 0.18 86 1010.2
20260507013958 54 323 6.0 11.0 0.00 0.25 0.18 87 1010.1
20260507012959 55 342 7.0 13.0 0.00 0.25 0.18 88 1009.7
20260507012458 55 328 6.0 11.0 0.00 0.25 0.18 88 1009.7
20260507011958 55 338 6.0 11.0 0.00 0.25 0.18 87 1009.8
20260507011459 55 312 7.0 14.0 0.00 0.25 0.18 87 1009.8
20260507010958 55 342 7.0 14.0 0.00 0.25 0.18 87 1009.5
20260507010458 56 335 8.0 13.0 0.00 0.25 0.18 87 1009.6
20260507010000 56 327 9.0 16.0 0.00 0.25 0.18 87 1009.5
20260507005458 56 50 9.0 16.0 0.00 0.25 0.18 87 1009.3
20260507004458 58 50 9.0 16.0 0.00 0.25 0.18 88 1009.1
20260507003958 58 50 9.0 16.0 0.00 0.25 0.18 88 1008.8
20260507003458 59 50 7.0 16.0 0.00 0.25 0.18 88 1008.7
20260507002959 61 50 4.0 16.0 0.00 0.25 0.18 93 1008.4
20260507002458 61 50 4.0 8.0 0.00 0.25 0.18 93 1008.2
20260507001958 61 50 4.0 8.0 0.00 0.25 0.18 93 1008.0
20260507000958 61 50 5.0 9.0 0.02 0.25 0.18 92 1007.8
20260507000458 61 50 6.0 10.0 0.05 0.25 0.18 92 1007.8
20260506235959 61 50 6.0 11.0 0.11 0.25 0.18 93 1007.7
20260506235458 61 50 6.0 11.0 0.18 0.25 0.18 93 1007.6
20260506234958 61 50 5.0 10.0 0.18 0.25 0.18 93 1007.6
20260506234459 61 50 5.0 8.0 0.18 0.25 0.18 93 1007.6
20260506233958 61 50 5.0 8.0 0.18 0.25 0.18 93 1007.7
20260506233458 61 50 7.0 12.0 0.18 0.25 0.18 92 1007.6
20260506232959 61 50 8.0 12.0 0.18 0.25 0.18 92 1007.6
20260506232458 61 50 8.0 13.0 0.18 0.25 0.18 92 1007.5
20260506231459 61 50 8.0 13.0 0.18 0.25 0.18 92 1007.3
20260506230958 61 50 9.0 15.0 0.16 0.23 0.16 92 1007.3
20260506230458 62 50 7.0 15.0 0.13 0.20 0.13 90 1007.4
20260506225959 63 50 7.0 12.0 0.07 0.14 0.07 92 1007.4
20260506225239 0 0.0 0.0 0.00 0.07 0.00 1007.3